Location: ?????
(38.3715°N, 23.0573°E)
Time: 09:58:27
(UTC+00:00)

Cosmos 2360 Rocket - Pass Details

Date: 03 August 2024
Orbit: 834 x 843 km, 71.0° (Epoch: 14 September)

Event Time Altitude Azimuth Distance (km) Brightness Sun altitude
Exits shadow 23:20:22 22° 82° (E) 1,771 4.0 -33.4°
Drops below altitude 10° 23:23:29 10° 50° (NE) 2,466 5.2 -33.3°
Sets 23:26:22 0° 37° (NE) 3,404 6.3 -33.1°
